Location: Poughquag
(41.6090°N, 73.6820°W)
Time: 14:22:22
(UTC-04:00)

CUBESAT XI-V - Pass Details

Date: 17 April 2024
Orbit: 657 x 681 km, 98.2° (Epoch: 19 May)

Event Time Altitude Azimuth Distance (km) Brightness Sun altitude
Exits shadow 03:04:31 33° 342° (NNW) 1,149 ? -29.7°
Drops below altitude 10° 03:07:03 10° 345° (NNW) 2,125 ? -29.5°
Sets 03:09:18 0° 347° (NNW) 3,041 ? -29.2°
